Starlink 2732

operational
NORAD ID: 48646 Int'l Des: 2021-044 Owner: SPXS Country: US Constellation: starlink
LEOCIRCULARSTARLINK_TYPE

Über Starlink 2732

Beschreibung wird geladen...

Live-Position

3D-Globus wird geladen...

Nächste Überflüge

Höhenverlauf

Altitude vs Time

uPlot chart will show altitude changes over time

Zweizeiliger Elementsatz

1 48646U 21044J 25305.38680900 .00000114 00000-0 26560-4 0 9997
2 48646 53.0559 337.5922 0001368 92.6774 267.4371 15.06391203244371
Epoch: 1. Nov. 2025 • Age: 13 hours

Aktueller Status

Höhe 547.7 km
Geschwindigkeit 7.59 km/s
Subsatellitenpunkt 24.79°N, 18.48°W
Startdatum 26. Mai 2021
Alter 4.4 years
Typ internet

Technische Details

Klassifizierung Payload
Masse 260.00 kg
Trockenmasse 248.00 kg
Gesamtmasse 260.00 kg
Länge 0.20 m
Durchmesser 2.80 m
Spannweite 9.00 m
Form Box + pan
Hersteller SPXS
Bus-Typ Starlink
Phasenstatus In Orbit
Besitzer/Staat SPXS/US

Große Konstellationen

Loading constellations...